Kezdőlap
METAR-TAF:

METAR-TAF

Repülőterek :

Harlan Municipal Airport

Harlan, Iowa, Amerikai Egyesült Államok

földrajzi szélesség: 41-35-04N, földrajzi hosszúság: 095-20-23W, magasság: 375 m

Jelenlegi meteorológiai megfigyelések

A jelentés 14 perccel ezelõtt készült, 11:35 UTC
Északkeleti szél 6 kt
Hőmérséklet 2°C
Páratartalom 100%
Légköri nyomás 1016 hPa
Látótávolság: 16.1 km
Derült ég

METAR: KHNR 231135Z AUTO 05006KT 10SM CLR 02/02 A3000 RMK A01

Idő: 06:49 (11:49 UTC)


TAF: hiányzik

Meteorológiai megfigyelések és előrejelzések több, mint 4000 repülőtéren (METAR és TAF jelentéseket).

A térképen piros és sárga pontok jelzik az elérhető meteorológiai állomásokat.

Mozgassa az egeret a pont fölött, hogy megjelenjen az állomás neve.

Azután kattintson az időjárási megfigyelések és előrejelzések megtekintéséhez.

A térkép megváltoztatása: kattintson a fekete keresztel jelölt zöld gombra ráközelítéshez, a vonallal jelölt zöld gombra távolításhoz, vagy a zöld nyilakra a szomszédos térképek eléréséhez.


METAR-TAF: